Tiempo cada hora Dabrowka

Hoy, 4 Agosto, Miércoles

Tiempo Temperatura Precipitaciones Viento Presión Humedad
00:00 +18°C° 0 mm 1 mps 751 mmHg 67%
01:00 +16°C° 0 mm 1 mps 750 mmHg 72%
02:00 +16°C° 0 mm 1 mps 750 mmHg 74%
03:00 +16°C° 0 mm 1 mps 750 mmHg 76%
04:00 +16°C° 0 mm 1 mps 750 mmHg 78%
05:00 +16°C° 0.1 mm 1 mps 750 mmHg 80%
06:00 +16°C° 0.1 mm 1 mps 750 mmHg 82%
07:00 +16°C° 0.1 mm 1 mps 751 mmHg 83%
08:00 +16°C° 0.1 mm 1 mps 751 mmHg 82%
09:00 +16°C° 0.1 mm 1 mps 751 mmHg 82%
10:00 +18°C° 0.1 mm 1 mps 751 mmHg 81%
11:00 +18°C° 0 mm 1 mps 751 mmHg 78%
12:00 +18°C° 0 mm 2 mps 751 mmHg 75%
13:00 +19°C° 0 mm 2 mps 751 mmHg 72%
14:00 +19°C° 0 mm 2 mps 751 mmHg 68%
15:00 +20°C° 0 mm 2 mps 750 mmHg 64%
16:00 +21°C° 0 mm 2 mps 750 mmHg 60%
17:00 +20°C° 0 mm 2 mps 750 mmHg 64%
18:00 +19°C° 0 mm 2 mps 750 mmHg 68%
19:00 +18°C° 0 mm 2 mps 750 mmHg 72%
20:00 +17°C° 0 mm 2 mps 750 mmHg 76%
21:00 +16°C° 0 mm 2 mps 751 mmHg 80%
22:00 +15°C° 0 mm 2 mps 751 mmHg 85%
23:00 +14°C° 0 mm 2 mps 751 mmHg 87%

Mañana, 5 Agosto, Jueves

Tiempo Temperatura Precipitaciones Viento Presión Humedad
00:00 +14°C° 0 mm 2 mps 750 mmHg 89%
01:00 +14°C° 0 mm 2 mps 750 mmHg 91%
02:00 +13°C° 0 mm 2 mps 750 mmHg 92%
03:00 +13°C° 0 mm 2 mps 750 mmHg 93%
04:00 +13°C° 0 mm 2 mps 750 mmHg 95%
05:00 +14°C° 0 mm 3 mps 750 mmHg 89%
06:00 +16°C° 0 mm 3 mps 750 mmHg 84%
07:00 +17°C° 0 mm 4 mps 750 mmHg 79%
08:00 +19°C° 0 mm 4 mps 750 mmHg 71%
09:00 +20°C° 0 mm 4 mps 749 mmHg 64%
10:00 +22°C° 0 mm 4 mps 749 mmHg 56%
11:00 +22°C° 0 mm 4 mps 749 mmHg 53%
12:00 +23°C° 0 mm 4 mps 749 mmHg 50%
13:00 +23°C° 0 mm 4 mps 748 mmHg 47%
14:00 +23°C° 0 mm 4 mps 748 mmHg 50%
15:00 +24°C° 0 mm 3 mps 748 mmHg 52%
16:00 +22°C° 0 mm 3 mps 748 mmHg 55%
17:00 +21°C° 0 mm 3 mps 747 mmHg 57%
18:00 +21°C° 0 mm 3 mps 747 mmHg 60%
19:00 +20°C° 0 mm 3 mps 747 mmHg 63%
20:00 +19°C° 0.1 mm 3 mps 747 mmHg 66%
21:00 +19°C° 0.1 mm 2 mps 747 mmHg 69%
22:00 +18°C° 0.1 mm 2 mps 746 mmHg 71%
23:00 +18°C° 0.2 mm 2 mps 746 mmHg 75%

Pasado mañana, 6 Agosto, Viernes

Tiempo Temperatura Precipitaciones Viento Presión Humedad
00:00 +17°C° 0.2 mm 2 mps 746 mmHg 78%
01:00 +17°C° 0.2 mm 2 mps 746 mmHg 81%
02:00 +16°C° 0.5 mm 2 mps 746 mmHg 84%
03:00 +16°C° 0.5 mm 2 mps 746 mmHg 87%
04:00 +16°C° 0.5 mm 2 mps 746 mmHg 90%
05:00 +16°C° 0 mm 2 mps 746 mmHg 87%
06:00 +16°C° 0 mm 2 mps 746 mmHg 84%
07:00 +17°C° 0 mm 3 mps 746 mmHg 81%
08:00 +18°C° 0 mm 3 mps 746 mmHg 76%
09:00 +19°C° 0 mm 3 mps 746 mmHg 70%
10:00 +19°C° 0 mm 3 mps 746 mmHg 65%
11:00 +21°C° 0 mm 2 mps 746 mmHg 59%
12:00 +23°C° 0 mm 2 mps 746 mmHg 53%
13:00 +24°C° 0 mm 2 mps 746 mmHg 48%
14:00 +24°C° 0 mm 2 mps 746 mmHg 48%
15:00 +24°C° 0 mm 3 mps 746 mmHg 48%
16:00 +24°C° 0 mm 3 mps 746 mmHg 48%
17:00 +21°C° 0 mm 3 mps 746 mmHg 56%
18:00 +20°C° 0 mm 3 mps 746 mmHg 64%
19:00 +18°C° 0 mm 3 mps 746 mmHg 72%
20:00 +17°C° 0 mm 3 mps 747 mmHg 77%
21:00 +16°C° 0 mm 3 mps 747 mmHg 83%
22:00 +14°C° 0 mm 3 mps 747 mmHg 88%
23:00 +14°C° 0 mm 3 mps 747 mmHg 89%

7 Agosto, Sábado

Tiempo Temperatura Precipitaciones Viento Presión Humedad
00:00 +13°C° 0 mm 3 mps 747 mmHg 91%
01:00 +14°C° 0 mm 2 mps 747 mmHg 92%
02:00 +14°C° 0 mm 2 mps 747 mmHg 91%
03:00 +14°C° 0 mm 2 mps 747 mmHg 91%
04:00 +14°C° 0 mm 2 mps 747 mmHg 90%
05:00 +16°C° 0 mm 2 mps 747 mmHg 85%
06:00 +17°C° 0 mm 2 mps 747 mmHg 80%
07:00 +19°C° 0 mm 2 mps 747 mmHg 75%
08:00 +21°C° 0 mm 3 mps 747 mmHg 68%
09:00 +22°C° 0 mm 3 mps 747 mmHg 62%
10:00 +25°C° 0 mm 3 mps 747 mmHg 55%
11:00 +26°C° 0.2 mm 3 mps 747 mmHg 52%
12:00 +27°C° 0.2 mm 3 mps 747 mmHg 48%
13:00 +28°C° 0.2 mm 3 mps 747 mmHg 44%
14:00 +27°C° 0 mm 3 mps 747 mmHg 46%
15:00 +27°C° 0 mm 3 mps 747 mmHg 47%
16:00 +26°C° 0 mm 3 mps 747 mmHg 48%
17:00 +26°C° 0 mm 2 mps 747 mmHg 51%
18:00 +25°C° 0 mm 2 mps 747 mmHg 53%
19:00 +24°C° 0 mm 2 mps 747 mmHg 56%
20:00 +23°C° 0 mm 2 mps 747 mmHg 58%
21:00 +21°C° 0 mm 2 mps 747 mmHg 60%
22:00 +21°C° 0 mm 3 mps 747 mmHg 62%
23:00 +20°C° 0 mm 3 mps 747 mmHg 65%

8 Agosto, Domingo

Tiempo Temperatura Precipitaciones Viento Presión Humedad
00:00 +19°C° 0 mm 3 mps 747 mmHg 68%
01:00 +19°C° 0 mm 3 mps 746 mmHg 71%
02:00 +19°C° 0 mm 4 mps 746 mmHg 71%
03:00 +19°C° 0 mm 5 mps 746 mmHg 71%
04:00 +20°C° 0 mm 5 mps 745 mmHg 71%
05:00 +20°C° 0 mm 5 mps 745 mmHg 69%
06:00 +21°C° 0 mm 5 mps 745 mmHg 66%
07:00 +21°C° 0 mm 5 mps 745 mmHg 63%
08:00 +20°C° 0.2 mm 6 mps 746 mmHg 70%
09:00 +20°C° 0.2 mm 6 mps 747 mmHg 76%
10:00 +18°C° 0.2 mm 7 mps 747 mmHg 82%
11:00 +21°C° 0 mm 7 mps 748 mmHg 72%
12:00 +22°C° 0 mm 6 mps 749 mmHg 63%
13:00 +24°C° 0 mm 6 mps 749 mmHg 53%
14:00 +24°C° 0 mm 6 mps 750 mmHg 52%
15:00 +25°C° 0 mm 5 mps 750 mmHg 52%
16:00 +23°C° 0 mm 5 mps 751 mmHg 51%
17:00 +23°C° 0 mm 4 mps 751 mmHg 54%
18:00 +22°C° 0 mm 3 mps 751 mmHg 56%
19:00 +21°C° 0 mm 2 mps 752 mmHg 58%
20:00 +21°C° 0 mm 2 mps 752 mmHg 58%
21:00 +20°C° 0 mm 2 mps 752 mmHg 58%
22:00 +20°C° 0 mm 2 mps 753 mmHg 58%
23:00 +19°C° 0 mm 2 mps 753 mmHg 62%

9 Agosto, Lunes

Tiempo Temperatura Precipitaciones Viento Presión Humedad
00:00 +18°C° 0 mm 3 mps 753 mmHg 65%
01:00 +17°C° 0 mm 3 mps 753 mmHg 68%
02:00 +16°C° 0 mm 3 mps 753 mmHg 72%
03:00 +16°C° 0 mm 3 mps 754 mmHg 75%
04:00 +14°C° 0 mm 3 mps 754 mmHg 78%
05:00 +17°C° 0 mm 3 mps 754 mmHg 74%
06:00 +18°C° 0 mm 2 mps 754 mmHg 70%
07:00 +19°C° 0 mm 2 mps 754 mmHg 66%
08:00 +21°C° 0 mm 3 mps 754 mmHg 59%
09:00 +24°C° 0 mm 3 mps 754 mmHg 51%
10:00 +25°C° 0 mm 4 mps 755 mmHg 44%
11:00 +26°C° 0 mm 4 mps 754 mmHg 41%
12:00 +27°C° 0 mm 4 mps 754 mmHg 38%
13:00 +27°C° 0 mm 5 mps 754 mmHg 34%
14:00 +27°C° 0 mm 5 mps 754 mmHg 34%
15:00 +27°C° 0 mm 4 mps 754 mmHg 33%
16:00 +27°C° 0 mm 4 mps 753 mmHg 33%
17:00 +26°C° 0 mm 3 mps 753 mmHg 38%
18:00 +25°C° 0 mm 3 mps 753 mmHg 42%
19:00 +23°C° 0 mm 2 mps 753 mmHg 47%
20:00 +23°C° 0 mm 1 mps 753 mmHg 47%
21:00 +22°C° 0 mm 1 mps 753 mmHg 47%
22:00 +22°C° 0 mm 1 mps 753 mmHg 47%
23:00 +21°C° 0 mm 1 mps 753 mmHg 50%
Mostrar más

Necesitamos Su Consentimiento

Meteoprog y nuestros Proveedores de Servicios pueden almacenar y acceder a sus datos personales como cookies, identificadores de dispositivo u otras tecnologías similares de su dispositivo y procesar dichos datos para personalizar contenido y anuncios, además de ofrecer funciones de redes sociales y analizar el tráfico.

  • Almacenar y/o acceder a información en su dispositivo

    Se puede almacenar o acceder a cookies, identificadores de dispositivo u otra información de su dispositivo para los fines anteriormente indicados.

  • Anuncios y contenido personalizados, medición de anuncios y contenido, percepciones del público, y desarrollo de productos

    Los anuncios y el contenido pueden personalizarse en base a su perfil. Se pueden añadir más datos para personalizar mejor los anuncios y contenidos. Se puede medir el rendimiento de los anuncios y contenidos. Se puede obtener la percepción sobre el público que ha visto los anuncios y contenidos. Dichos datos pueden usarse para desarrollar o mejorar la experiencia del usuario, sistemas y software.

Al hacer clic en ‘Estoy De Acuerdo’ usted permitirá el uso de las cookies, identificadores de dispositivo, balizas web u otras tecnologías similares indicadas. Su configuración puede cambiarse desde el navegador de su dispositivo.

Para ciertos fines, los intereses legítimos pueden ser considerados por encima del consentimiento. Puede leer más sobre ello en nuestra Política de Privacidad y Cookies.